owner,sensor,date,latitude,longitude,vertical_datum,mass_concentration_of_oxygen_in_sea_water,qcFlag 
SCCF RECON,ioos:station:SCCF:13:1,2013-04-01T00:00:00Z,26.5255,-82.0032,1.0,-9999.0,1111122 
SCCF RECON,ioos:station:SCCF:13:1,2013-04-01T01:00:00Z,26.5255,-82.0032,1.0,-9999.0,1111122 
SCCF RECON,ioos:station:SCCF:13:1,2013-04-01T02:00:00Z,26.5255,-82.0032,1.0,-9999.0,1111122 
SCCF RECON,ioos:station:SCCF:13:1,2013-04-01T03:00:00Z,26.5255,-82.0032,1.0,-9999.0,1111122 
SCCF RECON,ioos:station:SCCF:13:1,2013-04-01T04:00:00Z,26.5255,-82.0032,1.0,-9999.0,1111122 
SCCF RECON,ioos:station:SCCF:13:1,2013-04-01T05:00:00Z,26.5255,-82.0032,1.0,-9999.0,1111122 
SCCF RECON,ioos:station:SCCF:13:1,2013-04-01T06:00:00Z,26.5255,-82.0032,1.0,-9999.0,1111122 
SCCF RECON,ioos:station:SCCF:13:1,2013-04-01T07:00:00Z,26.5255,-82.0032,1.0,-9999.0,1111122 
SCCF RECON,ioos:station:SCCF:13:1,2013-04-01T08:00:00Z,26.5255,-82.0032,1.0,-9999.0,1111122 
SCCF RECON,ioos:station:SCCF:13:1,2013-04-01T09:00:00Z,26.5255,-82.0032,1.0,-9999.0,1111122 
SCCF RECON,ioos:station:SCCF:13:1,2013-04-01T10:00:00Z,26.5255,-82.0032,1.0,-9999.0,1111122 
SCCF RECON,ioos:station:SCCF:13:1,2013-04-01T11:00:00Z,26.5255,-82.0032,1.0,-9999.0,1111122 
SCCF RECON,ioos:station:SCCF:13:1,2013-04-01T12:00:00Z,26.5255,-82.0032,1.0,-9999.0,1111122 
SCCF RECON,ioos:station:SCCF:13:1,2013-04-01T13:00:00Z,26.5255,-82.0032,1.0,-9999.0,1111122 
SCCF RECON,ioos:station:SCCF:13:1,2013-04-01T14:00:00Z,26.5255,-82.0032,1.0,-9999.0,1111122 
SCCF RECON,ioos:station:SCCF:13:1,2013-04-01T15:00:00Z,26.5255,-82.0032,1.0,-9999.0,1111122 
SCCF RECON,ioos:station:SCCF:13:1,2013-04-01T16:00:00Z,26.5255,-82.0032,1.0,-9999.0,1111122 
SCCF RECON,ioos:station:SCCF:13:1,2013-04-01T17:00:00Z,26.5255,-82.0032,1.0,-9999.0,1111122 
SCCF RECON,ioos:station:SCCF:13:1,2013-04-01T18:00:00Z,26.5255,-82.0032,1.0,-9999.0,1111122 
SCCF RECON,ioos:station:SCCF:13:1,2013-04-01T19:00:00Z,26.5255,-82.0032,1.0,-9999.0,1111122 
SCCF RECON,ioos:station:SCCF:13:1,2013-04-01T20:00:00Z,26.5255,-82.0032,1.0,-9999.0,1111122 
SCCF RECON,ioos:station:SCCF:13:1,2013-04-01T21:00:00Z,26.5255,-82.0032,1.0,-9999.0,1111122 
SCCF RECON,ioos:station:SCCF:13:1,2013-04-01T22:00:00Z,26.5255,-82.0032,1.0,-9999.0,1111122 
SCCF RECON,ioos:station:SCCF:13:1,2013-04-01T23:00:00Z,26.5255,-82.0032,1.0,-9999.0,1111122 
SCCF RECON,ioos:station:SCCF:13:1,2013-04-02T00:00:00Z,26.5255,-82.0032,1.0,-9999.0,1111122 
SCCF RECON,ioos:station:SCCF:13:1,2013-04-02T01:00:00Z,26.5255,-82.0032,1.0,-9999.0,1111122 
SCCF RECON,ioos:station:SCCF:13:1,2013-04-02T02:00:00Z,26.5255,-82.0032,1.0,-9999.0,1111122 
SCCF RECON,ioos:station:SCCF:13:1,2013-04-02T03:00:00Z,26.5255,-82.0032,1.0,-9999.0,1111122 
SCCF RECON,ioos:station:SCCF:13:1,2013-04-02T04:00:00Z,26.5255,-82.0032,1.0,-9999.0,1111122 
SCCF RECON,ioos:station:SCCF:13:1,2013-04-02T05:00:00Z,26.5255,-82.0032,1.0,-9999.0,1111122 
SCCF RECON,ioos:station:SCCF:13:1,2013-04-02T06:00:00Z,26.5255,-82.0032,1.0,-9999.0,1111122 
SCCF RECON,ioos:station:SCCF:13:1,2013-04-02T07:00:00Z,26.5255,-82.0032,1.0,-9999.0,1111122 
SCCF RECON,ioos:station:SCCF:13:1,2013-04-02T08:00:00Z,26.5255,-82.0032,1.0,-9999.0,1111122 
SCCF RECON,ioos:station:SCCF:13:1,2013-04-02T09:00:00Z,26.5255,-82.0032,1.0,-9999.0,1111122 
SCCF RECON,ioos:station:SCCF:13:1,2013-04-02T10:00:00Z,26.5255,-82.0032,1.0,-9999.0,1111122 
SCCF RECON,ioos:station:SCCF:13:1,2013-04-02T11:00:00Z,26.5255,-82.0032,1.0,-9999.0,1111122 
SCCF RECON,ioos:station:SCCF:13:1,2013-04-02T12:00:00Z,26.5255,-82.0032,1.0,-9999.0,1111122 
SCCF RECON,ioos:station:SCCF:13:1,2013-04-02T13:00:00Z,26.5255,-82.0032,1.0,-9999.0,1111122 
SCCF RECON,ioos:station:SCCF:13:1,2013-04-02T14:00:00Z,26.5255,-82.0032,1.0,-9999.0,1111122 
SCCF RECON,ioos:station:SCCF:13:1,2013-04-02T16:00:00Z,26.5255,-82.0032,2.389,6.7,1111122 
SCCF RECON,ioos:station:SCCF:13:1,2013-04-02T17:00:00Z,26.5255,-82.0032,2.35,7.06,1111122 
SCCF RECON,ioos:station:SCCF:13:1,2013-04-02T18:00:00Z,26.5255,-82.0032,2.365,6.96,1111122 
SCCF RECON,ioos:station:SCCF:13:1,2013-04-02T19:00:00Z,26.5255,-82.0032,2.424,6.97,1111122 
SCCF RECON,ioos:station:SCCF:13:1,2013-04-02T20:00:00Z,26.5255,-82.0032,2.496,7.75,1111122 
SCCF RECON,ioos:station:SCCF:13:1,2013-04-02T21:00:00Z,26.5255,-82.0032,2.542,7.42,1111122 
SCCF RECON,ioos:station:SCCF:13:1,2013-04-02T22:00:00Z,26.5255,-82.0032,2.568,7.37,1111122 
SCCF RECON,ioos:station:SCCF:13:1,2013-04-02T23:00:00Z,26.5255,-82.0032,2.57,7.29,1111122 
SCCF RECON,ioos:station:SCCF:13:1,2013-04-03T00:00:00Z,26.5255,-82.0032,2.54,7.26,1111122 
SCCF RECON,ioos:station:SCCF:13:1,2013-04-03T01:00:00Z,26.5255,-82.0032,2.48,7.33,1111122 
SCCF RECON,ioos:station:SCCF:13:1,2013-04-03T02:00:00Z,26.5255,-82.0032,2.41,6.97,1111122 
SCCF RECON,ioos:station:SCCF:13:1,2013-04-03T03:00:00Z,26.5255,-82.0032,2.34,6.84,1111122 
SCCF RECON,ioos:station:SCCF:13:1,2013-04-03T04:00:00Z,26.5255,-82.0032,2.26,7.1,1111122 
SCCF RECON,ioos:station:SCCF:13:1,2013-04-03T05:00:00Z,26.5255,-82.0032,2.181,7.3,1111122 
SCCF RECON,ioos:station:SCCF:13:1,2013-04-03T06:00:00Z,26.5255,-82.0032,2.11,7.2,1111122 
SCCF RECON,ioos:station:SCCF:13:1,2013-04-03T07:00:00Z,26.5255,-82.0032,2.07,7.06,1111122 
SCCF RECON,ioos:station:SCCF:13:1,2013-04-03T08:00:00Z,26.5255,-82.0032,2.093,7.01,1111122 
SCCF RECON,ioos:station:SCCF:13:1,2013-04-03T09:00:00Z,26.5255,-82.0032,2.16,7.0,1111122 
SCCF RECON,ioos:station:SCCF:13:1,2013-04-03T10:00:00Z,26.5255,-82.0032,2.24,6.93,1111122 
SCCF RECON,ioos:station:SCCF:13:1,2013-04-03T11:00:00Z,26.5255,-82.0032,2.3,6.37,1111122 
SCCF RECON,ioos:station:SCCF:13:1,2013-04-03T12:00:00Z,26.5255,-82.0032,2.359,6.52,1111122 
SCCF RECON,ioos:station:SCCF:13:1,2013-04-03T13:00:00Z,26.5255,-82.0032,2.4,6.53,1111122 
SCCF RECON,ioos:station:SCCF:13:1,2013-04-03T14:00:00Z,26.5255,-82.0032,2.42,6.57,1111122 
SCCF RECON,ioos:station:SCCF:13:1,2013-04-03T15:00:00Z,26.5255,-82.0032,2.42,6.83,1111122 
SCCF RECON,ioos:station:SCCF:13:1,2013-04-03T16:00:00Z,26.5255,-82.0032,2.41,7.08,1111122 
SCCF RECON,ioos:station:SCCF:13:1,2013-04-03T17:00:00Z,26.5255,-82.0032,2.404,7.27,1111122 
SCCF RECON,ioos:station:SCCF:13:1,2013-04-03T18:00:00Z,26.5255,-82.0032,2.401,7.45,1111122 
SCCF RECON,ioos:station:SCCF:13:1,2013-04-03T19:00:00Z,26.5255,-82.0032,2.42,7.64,1111122 
SCCF RECON,ioos:station:SCCF:13:1,2013-04-03T20:00:00Z,26.5255,-82.0032,2.48,7.56,1111122 
SCCF RECON,ioos:station:SCCF:13:1,2013-04-03T21:00:00Z,26.5255,-82.0032,2.531,7.43,1111122 
SCCF RECON,ioos:station:SCCF:13:1,2013-04-03T22:00:00Z,26.5255,-82.0032,2.57,7.46,1111122 
SCCF RECON,ioos:station:SCCF:13:1,2013-04-03T23:00:00Z,26.5255,-82.0032,2.608,7.22,1111122 
SCCF RECON,ioos:station:SCCF:13:1,2013-04-04T00:00:00Z,26.5255,-82.0032,2.63,7.13,1111122 
SCCF RECON,ioos:station:SCCF:13:1,2013-04-04T01:00:00Z,26.5255,-82.0032,2.61,7.08,1111122 
SCCF RECON,ioos:station:SCCF:13:1,2013-04-04T02:00:00Z,26.5255,-82.0032,2.6,7.09,1111122 
SCCF RECON,ioos:station:SCCF:13:1,2013-04-04T03:00:00Z,26.5255,-82.0032,2.54,6.69,1111122 
SCCF RECON,ioos:station:SCCF:13:1,2013-04-04T04:00:00Z,26.5255,-82.0032,2.461,6.43,1111122 
SCCF RECON,ioos:station:SCCF:13:1,2013-04-04T05:00:00Z,26.5255,-82.0032,2.376,6.61,1111122 
SCCF RECON,ioos:station:SCCF:13:1,2013-04-04T06:00:00Z,26.5255,-82.0032,2.26,6.74,1111122 
SCCF RECON,ioos:station:SCCF:13:1,2013-04-04T07:00:00Z,26.5255,-82.0032,2.17,6.76,1111122 
SCCF RECON,ioos:station:SCCF:13:1,2013-04-04T08:00:00Z,26.5255,-82.0032,2.16,6.75,1111122 
SCCF RECON,ioos:station:SCCF:13:1,2013-04-04T09:00:00Z,26.5255,-82.0032,2.23,6.65,1111122 
SCCF RECON,ioos:station:SCCF:13:1,2013-04-04T10:00:00Z,26.5255,-82.0032,2.27,6.56,1111122 
SCCF RECON,ioos:station:SCCF:13:1,2013-04-04T11:00:00Z,26.5255,-82.0032,2.3,6.53,1111122 
SCCF RECON,ioos:station:SCCF:13:1,2013-04-04T12:00:00Z,26.5255,-82.0032,2.342,6.04,1111122 
SCCF RECON,ioos:station:SCCF:13:1,2013-04-04T13:00:00Z,26.5255,-82.0032,2.393,6.19,1111122 
SCCF RECON,ioos:station:SCCF:13:1,2013-04-04T14:00:00Z,26.5255,-82.0032,2.43,6.3,1111122 
SCCF RECON,ioos:station:SCCF:13:1,2013-04-04T15:00:00Z,26.5255,-82.0032,2.473,6.51,1111122 
SCCF RECON,ioos:station:SCCF:13:1,2013-04-04T16:00:00Z,26.5255,-82.0032,2.503,6.37,1111122 
SCCF RECON,ioos:station:SCCF:13:1,2013-04-04T17:00:00Z,26.5255,-82.0032,2.491,6.46,1111122 
SCCF RECON,ioos:station:SCCF:13:1,2013-04-04T18:00:00Z,26.5255,-82.0032,2.43,6.54,1111122 
SCCF RECON,ioos:station:SCCF:13:1,2013-04-04T19:00:00Z,26.5255,-82.0032,2.37,6.28,1111122 
SCCF RECON,ioos:station:SCCF:13:1,2013-04-04T20:00:00Z,26.5255,-82.0032,2.35,6.32,1111122 
SCCF RECON,ioos:station:SCCF:13:1,2013-04-04T21:00:00Z,26.5255,-82.0032,2.324,6.3,1111122 
SCCF RECON,ioos:station:SCCF:13:1,2013-04-04T22:00:00Z,26.5255,-82.0032,2.28,6.44,1111122 
SCCF RECON,ioos:station:SCCF:13:1,2013-04-04T23:00:00Z,26.5255,-82.0032,2.22,6.39,1111122 
SCCF RECON,ioos:station:SCCF:13:1,2013-04-05T00:00:00Z,26.5255,-82.0032,2.4,6.15,1111122 
SCCF RECON,ioos:station:SCCF:13:1,2013-04-05T01:00:00Z,26.5255,-82.0032,2.512,6.15,1111122 
SCCF RECON,ioos:station:SCCF:13:1,2013-04-05T02:00:00Z,26.5255,-82.0032,2.56,6.1,1111122 
SCCF RECON,ioos:station:SCCF:13:1,2013-04-05T03:00:00Z,26.5255,-82.0032,2.531,6.21,1111122 
SCCF RECON,ioos:station:SCCF:13:1,2013-04-05T04:00:00Z,26.5255,-82.0032,2.44,6.14,1111122 
SCCF RECON,ioos:station:SCCF:13:1,2013-04-05T05:00:00Z,26.5255,-82.0032,2.325,6.12,1111122 
SCCF RECON,ioos:station:SCCF:13:1,2013-04-05T06:00:00Z,26.5255,-82.0032,2.24,5.82,1111122 
SCCF RECON,ioos:station:SCCF:13:1,2013-04-05T07:00:00Z,26.5255,-82.0032,2.151,5.79,1111122 
SCCF RECON,ioos:station:SCCF:13:1,2013-04-05T08:00:00Z,26.5255,-82.0032,2.05,5.93,1111122 
SCCF RECON,ioos:station:SCCF:13:1,2013-04-05T09:00:00Z,26.5255,-82.0032,2.047,6.09,1111122 
SCCF RECON,ioos:station:SCCF:13:1,2013-04-05T10:00:00Z,26.5255,-82.0032,2.238,6.18,1111122 
SCCF RECON,ioos:station:SCCF:13:1,2013-04-05T11:00:00Z,26.5255,-82.0032,2.281,5.96,1111122 
SCCF RECON,ioos:station:SCCF:13:1,2013-04-05T12:00:00Z,26.5255,-82.0032,2.422,6.01,1111122 
SCCF RECON,ioos:station:SCCF:13:1,2013-04-05T13:00:00Z,26.5255,-82.0032,2.413,6.13,1111122 
SCCF RECON,ioos:station:SCCF:13:1,2013-04-05T14:00:00Z,26.5255,-82.0032,2.483,6.11,1111122 
SCCF RECON,ioos:station:SCCF:13:1,2013-04-05T15:00:00Z,26.5255,-82.0032,2.54,6.3,1111122 
SCCF RECON,ioos:station:SCCF:13:1,2013-04-05T16:00:00Z,26.5255,-82.0032,2.547,6.34,1111122 
SCCF RECON,ioos:station:SCCF:13:1,2013-04-05T17:00:00Z,26.5255,-82.0032,2.48,6.25,1111122 
SCCF RECON,ioos:station:SCCF:13:1,2013-04-05T18:00:00Z,26.5255,-82.0032,2.43,6.33,1111122 
SCCF RECON,ioos:station:SCCF:13:1,2013-04-05T19:00:00Z,26.5255,-82.0032,2.39,6.54,1111122 
SCCF RECON,ioos:station:SCCF:13:1,2013-04-05T20:00:00Z,26.5255,-82.0032,2.31,6.55,1111122 
SCCF RECON,ioos:station:SCCF:13:1,2013-04-05T21:00:00Z,26.5255,-82.0032,2.31,6.57,1111122 
SCCF RECON,ioos:station:SCCF:13:1,2013-04-05T22:00:00Z,26.5255,-82.0032,2.27,6.54,1111122 
SCCF RECON,ioos:station:SCCF:13:1,2013-04-05T23:00:00Z,26.5255,-82.0032,2.26,6.56,1111122 
SCCF RECON,ioos:station:SCCF:13:1,2013-04-06T00:00:00Z,26.5255,-82.0032,2.315,6.5,1111122 
SCCF RECON,ioos:station:SCCF:13:1,2013-04-06T01:00:00Z,26.5255,-82.0032,2.397,6.31,1111122 
SCCF RECON,ioos:station:SCCF:13:1,2013-04-06T02:00:00Z,26.5255,-82.0032,2.41,6.11,1111122 
SCCF RECON,ioos:station:SCCF:13:1,2013-04-06T03:00:00Z,26.5255,-82.0032,2.43,6.42,1111122 
SCCF RECON,ioos:station:SCCF:13:1,2013-04-06T04:00:00Z,26.5255,-82.0032,2.39,6.32,1111122 
SCCF RECON,ioos:station:SCCF:13:1,2013-04-06T05:00:00Z,26.5255,-82.0032,2.343,6.27,1111122 
SCCF RECON,ioos:station:SCCF:13:1,2013-04-06T06:00:00Z,26.5255,-82.0032,2.279,5.98,1111122 
SCCF RECON,ioos:station:SCCF:13:1,2013-04-06T07:00:00Z,26.5255,-82.0032,2.2,5.96,1111122 
SCCF RECON,ioos:station:SCCF:13:1,2013-04-06T08:00:00Z,26.5255,-82.0032,2.12,6.06,1111122 
SCCF RECON,ioos:station:SCCF:13:1,2013-04-06T09:00:00Z,26.5255,-82.0032,2.042,6.42,1111122 
SCCF RECON,ioos:station:SCCF:13:1,2013-04-06T10:00:00Z,26.5255,-82.0032,2.0,6.52,1111122 
SCCF RECON,ioos:station:SCCF:13:1,2013-04-06T11:00:00Z,26.5255,-82.0032,2.01,6.57,1111122 
SCCF RECON,ioos:station:SCCF:13:1,2013-04-06T12:00:00Z,26.5255,-82.0032,2.08,6.59,1111122 
SCCF RECON,ioos:station:SCCF:13:1,2013-04-06T13:00:00Z,26.5255,-82.0032,2.2,6.62,1111122 
SCCF RECON,ioos:station:SCCF:13:1,2013-04-06T14:00:00Z,26.5255,-82.0032,2.27,6.37,1111122 
SCCF RECON,ioos:station:SCCF:13:1,2013-04-06T15:00:00Z,26.5255,-82.0032,2.31,6.46,1111122 
SCCF RECON,ioos:station:SCCF:13:1,2013-04-06T16:00:00Z,26.5255,-82.0032,2.36,6.61,1111122 
SCCF RECON,ioos:station:SCCF:13:1,2013-04-06T17:00:00Z,26.5255,-82.0032,2.389,6.63,1111122 
SCCF RECON,ioos:station:SCCF:13:1,2013-04-06T18:00:00Z,26.5255,-82.0032,2.301,6.86,1111122 
SCCF RECON,ioos:station:SCCF:13:1,2013-04-06T19:00:00Z,26.5255,-82.0032,2.207,6.78,1111122 
SCCF RECON,ioos:station:SCCF:13:1,2013-04-06T20:00:00Z,26.5255,-82.0032,2.16,7.27,1111122 
SCCF RECON,ioos:station:SCCF:13:1,2013-04-06T21:00:00Z,26.5255,-82.0032,2.114,7.6,1111122 
SCCF RECON,ioos:station:SCCF:13:1,2013-04-06T22:00:00Z,26.5255,-82.0032,2.095,7.69,1111122 
SCCF RECON,ioos:station:SCCF:13:1,2013-04-06T23:00:00Z,26.5255,-82.0032,2.12,7.63,1111122 
SCCF RECON,ioos:station:SCCF:13:1,2013-04-07T00:00:00Z,26.5255,-82.0032,2.192,7.57,1111122 
SCCF RECON,ioos:station:SCCF:13:1,2013-04-07T01:00:00Z,26.5255,-82.0032,2.28,7.1,1111122 
SCCF RECON,ioos:station:SCCF:13:1,2013-04-07T02:00:00Z,26.5255,-82.0032,2.35,7.37,1111122 
SCCF RECON,ioos:station:SCCF:13:1,2013-04-07T03:00:00Z,26.5255,-82.0032,2.4,7.2,1111122 
SCCF RECON,ioos:station:SCCF:13:1,2013-04-07T04:00:00Z,26.5255,-82.0032,2.44,7.07,1111122 
SCCF RECON,ioos:station:SCCF:13:1,2013-04-07T05:00:00Z,26.5255,-82.0032,2.43,7.01,1111122 
SCCF RECON,ioos:station:SCCF:13:1,2013-04-07T06:00:00Z,26.5255,-82.0032,2.34,6.8,1111122 
SCCF RECON,ioos:station:SCCF:13:1,2013-04-07T07:00:00Z,26.5255,-82.0032,2.25,6.67,1111122 
SCCF RECON,ioos:station:SCCF:13:1,2013-04-07T08:00:00Z,26.5255,-82.0032,2.15,6.63,1111122 
SCCF RECON,ioos:station:SCCF:13:1,2013-04-07T09:00:00Z,26.5255,-82.0032,2.08,6.58,1111122 
SCCF RECON,ioos:station:SCCF:13:1,2013-04-07T10:00:00Z,26.5255,-82.0032,2.03,6.69,1111122 
SCCF RECON,ioos:station:SCCF:13:1,2013-04-07T11:00:00Z,26.5255,-82.0032,2.03,6.75,1111122 
SCCF RECON,ioos:station:SCCF:13:1,2013-04-07T12:00:00Z,26.5255,-82.0032,2.109,6.78,1111122 
SCCF RECON,ioos:station:SCCF:13:1,2013-04-07T13:00:00Z,26.5255,-82.0032,2.24,6.77,1111122 
SCCF RECON,ioos:station:SCCF:13:1,2013-04-07T14:00:00Z,26.5255,-82.0032,2.319,6.23,1111122 
SCCF RECON,ioos:station:SCCF:13:1,2013-04-07T15:00:00Z,26.5255,-82.0032,2.373,6.55,1111122 
SCCF RECON,ioos:station:SCCF:13:1,2013-04-07T16:00:00Z,26.5255,-82.0032,2.409,6.91,1111122 
SCCF RECON,ioos:station:SCCF:13:1,2013-04-07T17:00:00Z,26.5255,-82.0032,2.417,7.02,1111122 
SCCF RECON,ioos:station:SCCF:13:1,2013-04-07T18:00:00Z,26.5255,-82.0032,2.365,7.16,1111122 
SCCF RECON,ioos:station:SCCF:13:1,2013-04-07T19:00:00Z,26.5255,-82.0032,2.27,7.27,1111122 
SCCF RECON,ioos:station:SCCF:13:1,2013-04-07T20:00:00Z,26.5255,-82.0032,2.186,7.61,1111122 
SCCF RECON,ioos:station:SCCF:13:1,2013-04-07T21:00:00Z,26.5255,-82.0032,2.114,7.8,1111122 
SCCF RECON,ioos:station:SCCF:13:1,2013-04-07T22:00:00Z,26.5255,-82.0032,2.049,7.99,1111122 
SCCF RECON,ioos:station:SCCF:13:1,2013-04-07T23:00:00Z,26.5255,-82.0032,2.019,7.69,1111122 
SCCF RECON,ioos:station:SCCF:13:1,2013-04-08T00:00:00Z,26.5255,-82.0032,2.06,7.48,1111122 
SCCF RECON,ioos:station:SCCF:13:1,2013-04-08T01:00:00Z,26.5255,-82.0032,2.207,7.44,1111122 
SCCF RECON,ioos:station:SCCF:13:1,2013-04-08T02:00:00Z,26.5255,-82.0032,2.29,7.12,1111122 
SCCF RECON,ioos:station:SCCF:13:1,2013-04-08T03:00:00Z,26.5255,-82.0032,2.355,7.56,1111122 
SCCF RECON,ioos:station:SCCF:13:1,2013-04-08T04:00:00Z,26.5255,-82.0032,2.42,7.36,1111122 
SCCF RECON,ioos:station:SCCF:13:1,2013-04-08T05:00:00Z,26.5255,-82.0032,2.45,7.29,1111122 
SCCF RECON,ioos:station:SCCF:13:1,2013-04-08T06:00:00Z,26.5255,-82.0032,2.439,7.17,1111122 
SCCF RECON,ioos:station:SCCF:13:1,2013-04-08T07:00:00Z,26.5255,-82.0032,2.35,6.9,1111122 
SCCF RECON,ioos:station:SCCF:13:1,2013-04-08T08:00:00Z,26.5255,-82.0032,2.26,6.86,1111122 
SCCF RECON,ioos:station:SCCF:13:1,2013-04-08T09:00:00Z,26.5255,-82.0032,2.18,6.71,1111122 
SCCF RECON,ioos:station:SCCF:13:1,2013-04-08T10:00:00Z,26.5255,-82.0032,2.12,6.66,1111122 
SCCF RECON,ioos:station:SCCF:13:1,2013-04-08T11:00:00Z,26.5255,-82.0032,2.08,6.63,1111122 
SCCF RECON,ioos:station:SCCF:13:1,2013-04-08T12:00:00Z,26.5255,-82.0032,2.098,6.63,1111122 
SCCF RECON,ioos:station:SCCF:13:1,2013-04-08T13:00:00Z,26.5255,-82.0032,2.232,6.75,1111122 
SCCF RECON,ioos:station:SCCF:13:1,2013-04-08T14:00:00Z,26.5255,-82.0032,2.35,6.27,1111122 
SCCF RECON,ioos:station:SCCF:13:1,2013-04-08T15:00:00Z,26.5255,-82.0032,2.412,6.58,1111122 
SCCF RECON,ioos:station:SCCF:13:1,2013-04-08T16:00:00Z,26.5255,-82.0032,2.47,6.98,1111122 
SCCF RECON,ioos:station:SCCF:13:1,2013-04-08T17:00:00Z,26.5255,-82.0032,2.498,7.23,1111122 
SCCF RECON,ioos:station:SCCF:13:1,2013-04-08T18:00:00Z,26.5255,-82.0032,2.48,7.47,1111122 
SCCF RECON,ioos:station:SCCF:13:1,2013-04-08T19:00:00Z,26.5255,-82.0032,2.399,7.62,1111122 
SCCF RECON,ioos:station:SCCF:13:1,2013-04-08T20:00:00Z,26.5255,-82.0032,2.3,7.81,1111122 
SCCF RECON,ioos:station:SCCF:13:1,2013-04-08T21:00:00Z,26.5255,-82.0032,2.219,7.89,1111122 
SCCF RECON,ioos:station:SCCF:13:1,2013-04-08T22:00:00Z,26.5255,-82.0032,2.147,8.01,1111122 
SCCF RECON,ioos:station:SCCF:13:1,2013-04-08T23:00:00Z,26.5255,-82.0032,2.084,7.99,1111122 
SCCF RECON,ioos:station:SCCF:13:1,2013-04-09T00:00:00Z,26.5255,-82.0032,2.064,7.74,1111122 
SCCF RECON,ioos:station:SCCF:13:1,2013-04-09T01:00:00Z,26.5255,-82.0032,2.13,7.6,1111122 
SCCF RECON,ioos:station:SCCF:13:1,2013-04-09T02:00:00Z,26.5255,-82.0032,2.275,7.49,1111122 
SCCF RECON,ioos:station:SCCF:13:1,2013-04-09T03:00:00Z,26.5255,-82.0032,2.376,7.39,1111122 
SCCF RECON,ioos:station:SCCF:13:1,2013-04-09T04:00:00Z,26.5255,-82.0032,2.442,7.71,1111122 
SCCF RECON,ioos:station:SCCF:13:1,2013-04-09T05:00:00Z,26.5255,-82.0032,2.506,7.58,1111122 
SCCF RECON,ioos:station:SCCF:13:1,2013-04-09T06:00:00Z,26.5255,-82.0032,2.51,7.47,1111122 
SCCF RECON,ioos:station:SCCF:13:1,2013-04-09T07:00:00Z,26.5255,-82.0032,2.45,7.33,1111122 
SCCF RECON,ioos:station:SCCF:13:1,2013-04-09T08:00:00Z,26.5255,-82.0032,2.35,7.22,1111122 
SCCF RECON,ioos:station:SCCF:13:1,2013-04-09T09:00:00Z,26.5255,-82.0032,2.28,6.93,1111122 
SCCF RECON,ioos:station:SCCF:13:1,2013-04-09T10:00:00Z,26.5255,-82.0032,2.218,6.78,1111122 
SCCF RECON,ioos:station:SCCF:13:1,2013-04-09T11:00:00Z,26.5255,-82.0032,2.16,6.74,1111122 
SCCF RECON,ioos:station:SCCF:13:1,2013-04-09T12:00:00Z,26.5255,-82.0032,2.121,6.75,1111122 
SCCF RECON,ioos:station:SCCF:13:1,2013-04-09T13:00:00Z,26.5255,-82.0032,2.193,6.88,1111122 
SCCF RECON,ioos:station:SCCF:13:1,2013-04-09T14:00:00Z,26.5255,-82.0032,2.344,6.75,1111122 
SCCF RECON,ioos:station:SCCF:13:1,2013-04-09T15:00:00Z,26.5255,-82.0032,2.441,6.5,1111122 
SCCF RECON,ioos:station:SCCF:13:1,2013-04-09T16:00:00Z,26.5255,-82.0032,2.499,6.96,1111122 
SCCF RECON,ioos:station:SCCF:13:1,2013-04-09T17:00:00Z,26.5255,-82.0032,2.54,7.18,1111122 
SCCF RECON,ioos:station:SCCF:13:1,2013-04-09T18:00:00Z,26.5255,-82.0032,2.542,7.47,1111122 
SCCF RECON,ioos:station:SCCF:13:1,2013-04-09T19:00:00Z,26.5255,-82.0032,2.48,7.51,1111122 
SCCF RECON,ioos:station:SCCF:13:1,2013-04-09T20:00:00Z,26.5255,-82.0032,2.37,7.56,1111122 
SCCF RECON,ioos:station:SCCF:13:1,2013-04-09T21:00:00Z,26.5255,-82.0032,2.28,7.74,1111122 
SCCF RECON,ioos:station:SCCF:13:1,2013-04-09T22:00:00Z,26.5255,-82.0032,2.201,7.67,1111122 
SCCF RECON,ioos:station:SCCF:13:1,2013-04-09T23:00:00Z,26.5255,-82.0032,2.127,7.52,1111122 
SCCF RECON,ioos:station:SCCF:13:1,2013-04-10T00:00:00Z,26.5255,-82.0032,2.07,7.3,1111122 
SCCF RECON,ioos:station:SCCF:13:1,2013-04-10T01:00:00Z,26.5255,-82.0032,2.05,7.24,1111122 
SCCF RECON,ioos:station:SCCF:13:1,2013-04-10T02:00:00Z,26.5255,-82.0032,2.157,7.18,1111122 
SCCF RECON,ioos:station:SCCF:13:1,2013-04-10T03:00:00Z,26.5255,-82.0032,2.3,7.09,1111122 
SCCF RECON,ioos:station:SCCF:13:1,2013-04-10T04:00:00Z,26.5255,-82.0032,2.38,6.79,1111122 
SCCF RECON,ioos:station:SCCF:13:1,2013-04-10T05:00:00Z,26.5255,-82.0032,2.44,7.1,1111122 
SCCF RECON,ioos:station:SCCF:13:1,2013-04-10T06:00:00Z,26.5255,-82.0032,2.479,7.09,1111122 
SCCF RECON,ioos:station:SCCF:13:1,2013-04-10T07:00:00Z,26.5255,-82.0032,2.46,7.03,1111122 
SCCF RECON,ioos:station:SCCF:13:1,2013-04-10T08:00:00Z,26.5255,-82.0032,2.393,6.99,1111122 
SCCF RECON,ioos:station:SCCF:13:1,2013-04-10T09:00:00Z,26.5255,-82.0032,2.309,6.9,1111122 
SCCF RECON,ioos:station:SCCF:13:1,2013-04-10T10:00:00Z,26.5255,-82.0032,2.23,6.51,1111122 
SCCF RECON,ioos:station:SCCF:13:1,2013-04-10T11:00:00Z,26.5255,-82.0032,2.19,6.26,1111122 
SCCF RECON,ioos:station:SCCF:13:1,2013-04-10T12:00:00Z,26.5255,-82.0032,2.148,6.39,1111122 
SCCF RECON,ioos:station:SCCF:13:1,2013-04-10T13:00:00Z,26.5255,-82.0032,2.18,6.45,1111122 
SCCF RECON,ioos:station:SCCF:13:1,2013-04-10T14:00:00Z,26.5255,-82.0032,2.292,6.57,1111122 
SCCF RECON,ioos:station:SCCF:13:1,2013-04-10T15:00:00Z,26.5255,-82.0032,2.401,6.25,1111122 
SCCF RECON,ioos:station:SCCF:13:1,2013-04-10T16:00:00Z,26.5255,-82.0032,2.474,6.61,1111122 
SCCF RECON,ioos:station:SCCF:13:1,2013-04-10T17:00:00Z,26.5255,-82.0032,2.521,7.06,1111122 
SCCF RECON,ioos:station:SCCF:13:1,2013-04-10T18:00:00Z,26.5255,-82.0032,2.55,7.51,1111122 
SCCF RECON,ioos:station:SCCF:13:1,2013-04-10T19:00:00Z,26.5255,-82.0032,2.52,7.75,1111122 
SCCF RECON,ioos:station:SCCF:13:1,2013-04-10T20:00:00Z,26.5255,-82.0032,2.44,7.8,1111122 
SCCF RECON,ioos:station:SCCF:13:1,2013-04-10T21:00:00Z,26.5255,-82.0032,2.33,7.73,1111122 
SCCF RECON,ioos:station:SCCF:13:1,2013-04-10T22:00:00Z,26.5255,-82.0032,2.232,7.78,1111122 
SCCF RECON,ioos:station:SCCF:13:1,2013-04-10T23:00:00Z,26.5255,-82.0032,2.16,7.73,1111122 
SCCF RECON,ioos:station:SCCF:13:1,2013-04-11T00:00:00Z,26.5255,-82.0032,2.1,7.41,1111122 
SCCF RECON,ioos:station:SCCF:13:1,2013-04-11T01:00:00Z,26.5255,-82.0032,2.039,7.21,1111122 
SCCF RECON,ioos:station:SCCF:13:1,2013-04-11T02:00:00Z,26.5255,-82.0032,2.06,7.12,1111122 
SCCF RECON,ioos:station:SCCF:13:1,2013-04-11T03:00:00Z,26.5255,-82.0032,2.19,7.03,1111122 
SCCF RECON,ioos:station:SCCF:13:1,2013-04-11T04:00:00Z,26.5255,-82.0032,2.31,6.59,1111122 
SCCF RECON,ioos:station:SCCF:13:1,2013-04-11T05:00:00Z,26.5255,-82.0032,2.38,6.8,1111122 
SCCF RECON,ioos:station:SCCF:13:1,2013-04-11T06:00:00Z,26.5255,-82.0032,2.43,6.92,1111122 
SCCF RECON,ioos:station:SCCF:13:1,2013-04-11T07:00:00Z,26.5255,-82.0032,2.441,6.9,1111122 
SCCF RECON,ioos:station:SCCF:13:1,2013-04-11T08:00:00Z,26.5255,-82.0032,2.42,6.78,1111122 
SCCF RECON,ioos:station:SCCF:13:1,2013-04-11T09:00:00Z,26.5255,-82.0032,2.369,6.71,1111122 
SCCF RECON,ioos:station:SCCF:13:1,2013-04-11T10:00:00Z,26.5255,-82.0032,2.306,6.61,1111122 
SCCF RECON,ioos:station:SCCF:13:1,2013-04-11T11:00:00Z,26.5255,-82.0032,2.259,6.32,1111122 
SCCF RECON,ioos:station:SCCF:13:1,2013-04-11T12:00:00Z,26.5255,-82.0032,2.204,6.14,1111122 
SCCF RECON,ioos:station:SCCF:13:1,2013-04-11T13:00:00Z,26.5255,-82.0032,2.192,6.14,1111122 
SCCF RECON,ioos:station:SCCF:13:1,2013-04-11T14:00:00Z,26.5255,-82.0032,2.28,6.31,1111122 
SCCF RECON,ioos:station:SCCF:13:1,2013-04-11T15:00:00Z,26.5255,-82.0032,2.397,6.28,1111122 
SCCF RECON,ioos:station:SCCF:13:1,2013-04-11T16:00:00Z,26.5255,-82.0032,2.463,6.6,1111122 
SCCF RECON,ioos:station:SCCF:13:1,2013-04-11T17:00:00Z,26.5255,-82.0032,2.51,7.01,1111122 
SCCF RECON,ioos:station:SCCF:13:1,2013-04-11T18:00:00Z,26.5255,-82.0032,2.554,7.28,1111122 
SCCF RECON,ioos:station:SCCF:13:1,2013-04-11T19:00:00Z,26.5255,-82.0032,2.58,7.31,1111122 
SCCF RECON,ioos:station:SCCF:13:1,2013-04-11T20:00:00Z,26.5255,-82.0032,2.56,7.39,1111122 
SCCF RECON,ioos:station:SCCF:13:1,2013-04-11T21:00:00Z,26.5255,-82.0032,2.43,7.39,1111122 